Location: Gwatt
(46.7204°N, 7.6223°E)
Time: 18:00:06
(UTC+00:00)

Courier 1B Rocket - Pass Details

Date: 25 January 2021
Orbit: 920 x 1202 km, 28.3° (Epoch: 05 March)

Event Time Altitude Azimuth Distance (km) Brightness Sun altitude
Rises 08:27:05 0° 241° (WSW) 3,795 7.9 11.1°
Reaches altitude 10° 08:30:53 10° 221° (SW) 2,900 7.6 11.6°
Maximum altitude 08:35:01 16° 185° (S) 2,515 7.9 12.1°
Drops below altitude 10° 08:39:18 10° 150° (SSE) 3,017 9.7 12.6°
Sets 08:43:22 0° 130° (SE) 4,024 10.2 13.1°
